PST,Max TemperatureF,Mean TemperatureF,Min TemperatureF,Max Dew PointF,MeanDew PointF,Min DewpointF,Max Humidity, Mean Humidity, Min Humidity, Max Sea Level PressureIn, Mean Sea Level PressureIn, Min Sea Level PressureIn, Max VisibilityMiles, Mean VisibilityMiles, Min VisibilityMiles, Max Wind SpeedMPH, Mean Wind SpeedMPH, Max Gust SpeedMPH,PrecipitationIn, CloudCover, Events, WindDirDegrees
2013-12-1,66,50,33,32,29,26,82,52,22,30.37,30.29,30.23,10,10,10,9,4,,0.00,0,,206
2013-12-2,64,47,30,32,27,17,79,47,16,30.24,30.02,29.73,10,10,10,25,4,38,0.00,2,,193
2013-12-3,66,57,45,41,32,17,55,37,18,29.71,29.60,29.52,10,10,10,37,27,47,0.00,2,,218
2013-12-4,48,38,26,18,11,8,55,32,21,30.02,29.92,29.70,10,10,10,21,10,29,0.00,0,,304
2013-12-5,45,32,19,12,10,8,68,44,22,30.13,30.06,30.00,10,10,10,9,5,,0.00,0,,191
2013-12-6,46,32,18,13,6,-12,65,37,10,30.20,30.09,29.98,10,10,10,21,5,28,0.00,0,,206
2013-12-7,48,40,27,36,16,-3,74,39,17,30.06,29.89,29.79,,,,31,18,39,0.00,1,,229
2013-12-8,41,30,18,12,10,8,65,46,28,30.30,30.21,30.08,,,,9,4,,0.00,0,,219
2013-12-9,43,30,17,11,3,-6,68,40,15,30.53,30.46,30.31,10,10,10,9,4,,0.00,0,,168
2013-12-10,46,30,14,4,2,0,54,34,15,30.52,30.38,30.27,10,10,10,9,3,,0.00,0,,244
2013-12-11,53,36,19,10,7,5,57,37,16,30.39,30.33,30.28,10,10,10,10,3,,0.00,0,,224
2013-12-12,57,38,19,15,12,7,57,39,17,30.34,30.26,30.18,10,10,10,10,5,,0.00,0,,215
2013-12-13,59,41,23,16,14,11,65,40,17,30.36,30.24,30.15,10,10,10,10,4,,0.00,0,,195
2013-12-14,61,42,24,23,18,13,63,41,19,30.48,30.43,30.36,10,10,10,9,4,,0.00,0,,168
2013-12-15,61,42,24,20,17,13,63,41,19,30.48,30.40,30.33,10,10,10,9,3,,0.00,0,,217
2013-12-16,64,46,28,21,19,16,59,40,18,30.40,30.32,30.26,10,10,10,10,4,,0.00,4,,199
2013-12-17,64,47,30,23,20,17,59,40,19,30.35,30.25,30.15,10,10,10,10,2,,0.00,5,,189
2013-12-18,60,48,37,25,22,20,50,37,22,30.12,29.93,29.63,10,10,10,12,4,,0.00,5,,244
2013-12-19,57,50,42,38,30,20,73,48,29,29.82,29.67,29.55,10,10,8,24,14,36,0.00,4,,268
2013-12-20,55,44,33,20,16,11,46,33,18,29.96,29.88,29.81,10,10,10,22,11,30,0.00,0,,286
2013-12-21,61,44,26,26,19,14,67,44,22,30.12,29.97,29.88,,,,8,3,,0.00,0,,217
2013-12-22,61,44,27,28,24,19,75,52,26,30.37,30.26,30.10,,,,9,5,,0.00,0,,235
2013-12-23,62,45,28,30,25,21,72,52,28,30.48,30.41,30.36,10,10,10,9,4,,0.00,0,,201
2013-12-24,66,47,28,31,26,21,78,53,27,30.40,30.33,30.23,10,10,10,10,3,,0.00,2,,236
2013-12-25,64,45,26,26,20,13,75,44,17,30.46,30.38,30.32,,,,10,4,,0.00,0,,202
2013-12-26,64,45,26,18,13,7,58,35,15,30.40,30.33,30.26,10,10,10,9,3,,0.00,0,,186
2013-12-27,64,44,23,12,8,5,46,28,13,30.36,30.26,30.14,10,10,10,9,3,,0.00,2,,220
2013-12-28,66,48,30,14,10,7,42,25,10,30.11,30.06,29.99,,,,10,3,,0.00,0,,176
2013-12-29,63,46,30,15,9,6,45,24,11,30.29,30.22,30.11,,,,14,5,,0.00,0,,170
2013-12-30,61,44,26,9,7,5,41,26,12,30.38,30.30,30.23,10,10,10,9,3,,0.00,3,,216
2013-12-31,57,41,25,10,8,5,43,28,14,30.30,30.23,30.15,10,10,10,10,4,,0.00,2,,194